Location: Ku?niki
(51.4449°N, 17.8974°E)
Time: 11:51:31
(UTC+00:00)

COSMOS 2455 - Pass Details

Date: 18 September 2020
Orbit: 898 x 911 km, 67.1° (Epoch: 31 October)

Event Time Altitude Azimuth Distance (km) Brightness Sun altitude
Exits shadow 22:35:49 37° 10° (N) 1,376 4.1 -37.1°
Drops below altitude 10° 22:39:41 10° 33° (NNE) 2,608 5.8 -37.2°
Sets 22:42:17 0° 38° (NE) 3,553 6.6 -37.2°
